GW1722 Weather Reports


time (UTC)temp
C
wind
direction
speed
KPH
gust
KPH
rain 1hr
cm
rain 24hr
cm
rain mn
cm
humidity
%
barometer
mb
20260505130112 5 133 0.0 0.0 0.00 0.00 0.00 69 1004.0
20260505124601 5 299 0.0 0.0 0.00 0.00 0.00 74 1003.9
20260505124057 5 242 0.0 0.0 0.00 0.00 0.00 74 1003.9
20260505123554 5 341 0.0 0.0 0.00 0.00 0.00 73 1004.1
20260505123050 4 348 0.0 0.0 0.00 0.00 0.00 75 1004.0
20260505122547 3 325 0.0 0.0 0.00 0.00 0.00 76 1003.9
20260505122044 3 308 0.0 0.0 0.00 0.00 0.00 77 1003.9
20260505121541 3 233 0.0 0.0 0.00 0.00 0.00 77 1004.1
20260505121038 3 315 0.0 0.0 0.00 0.00 0.00 76 1004.1
20260505120534 3 242 0.0 0.0 0.00 0.00 0.00 74 1004.2
20260505120030 3 247 0.0 0.0 0.00 0.00 0.00 73 1003.9
20260505115524 3 246 0.0 0.0 0.00 0.00 0.00 75 1003.8
20260505115022 3 264 0.0 0.0 0.00 0.00 0.00 75 1003.9
20260505114519 3 264 0.0 0.0 0.00 0.00 0.00 81 1003.8
20260505114015 2 270 0.0 0.0 0.00 0.00 0.00 79 1003.5
20260505113512 2 270 0.0 0.0 0.00 0.00 0.00 79 1003.8
20260505113008 2 270 0.0 0.0 0.00 0.00 0.00 80 1003.7
20260505112504 2 270 0.0 0.0 0.00 0.00 0.00 80 1003.5
20260505112003 2 270 0.0 0.0 0.00 0.00 0.00 79 1003.3
20260505111456 2 269 0.0 0.0 0.00 0.00 0.00 77 1003.3
20260505110953 2 269 0.0 0.0 0.00 0.00 0.00 77 1003.0
20260505110449 2 268 0.0 0.0 0.00 0.00 0.00 77 1003.3
20260505101921 2 326 0.0 0.0 0.00 0.00 0.00 74 1003.1
20260505101415 3 325 0.0 0.0 0.00 0.00 0.00 74 1002.6
20260505100911 3 332 0.0 0.0 0.00 0.00 0.00 73 1002.7
20260505100408 3 320 0.0 0.0 0.00 0.00 0.00 71 1002.4
20260505095903 3 329 0.0 0.0 0.00 0.00 0.00 71 1002.4
20260505095401 3 343 0.0 0.0 0.00 0.00 0.00 71 1002.3
20260505094857 3 324 0.0 0.0 0.00 0.00 0.00 71 1002.4
20260505094354 3 317 0.0 0.0 0.00 0.00 0.00 70 1002.3
20260505093849 3 347 0.0 0.0 0.00 0.00 0.00 70 1002.2
20260505093347 3 331 0.0 0.0 0.00 0.00 0.00 70 1002.3
20260505092844 3 323 0.0 0.0 0.00 0.00 0.00 70 1002.1
20260505092342 3 350 0.0 0.0 0.00 0.00 0.00 69 1002.2
20260505091839 3 338 0.0 0.0 0.00 0.00 0.00 70 1002.1
20260505091337 3 316 0.0 0.0 0.00 0.00 0.00 69 1002.3
20260505090835 3 326 0.0 0.0 0.00 0.00 0.00 69 1001.9
20260505090333 4 334 0.0 0.0 0.00 0.00 0.00 68 1001.9
20260505085830 4 336 0.0 0.0 0.00 0.00 0.00 69 1002.1
20260505085328 4 332 0.0 0.0 0.00 0.00 0.00 69 1002.0
20260505084825 4 353 0.0 0.0 0.00 0.00 0.00 69 1001.8
20260505084324 4 326 0.0 0.0 0.00 0.00 0.00 70 1001.8
20260505083820 4 344 0.0 0.0 0.00 0.00 0.00 70 1001.9
20260505083318 4 326 0.0 0.0 0.00 0.00 0.00 69 1001.9
20260505082814 4 341 0.0 0.0 0.00 0.00 0.00 69 1001.7
20260505082311 4 333 0.0 0.0 0.00 0.00 0.00 69 1001.8
20260505081807 4 3 0.0 0.0 0.00 0.00 0.00 68 1001.8
20260505081304 5 340 0.0 0.0 0.00 0.00 0.00 67 1001.6
20260505080801 4 322 0.0 0.0 0.00 0.00 0.00 68 1001.6
20260505080256 5 314 0.0 0.0 0.00 0.00 0.00 67 1001.5
20260505075752 5 331 0.0 0.0 0.00 0.00 0.00 67 1001.3
20260505075250 5 310 0.0 0.0 0.00 0.00 0.00 66 1001.6
20260505074747 5 333 0.0 0.0 0.00 0.00 0.00 66 1001.3
20260505074244 5 293 0.0 0.0 0.00 0.00 0.00 65 1001.5
20260505073741 5 329 0.0 0.0 0.00 0.00 0.00 65 1001.5
20260505073239 5 342 0.0 0.0 0.00 0.00 0.00 65 1001.3
20260505072735 5 292 0.0 0.0 0.00 0.00 0.00 67 1001.5
20260505072232 5 356 0.0 0.0 0.00 0.00 0.00 67 1001.2
20260505071727 3 357 0.0 0.0 0.00 0.00 0.00 69 1001.3
20260505071224 3 12 0.0 0.0 0.00 0.00 0.00 71 1001.1
20260505070722 3 292 0.0 0.0 0.00 0.00 0.00 70 1001.3
20260505070218 3 359 0.0 0.0 0.00 0.00 0.00 69 1001.3
20260505065714 4 311 0.0 0.0 0.00 0.00 0.00 68 1001.1
20260505065211 4 306 0.0 0.0 0.00 0.00 0.00 66 1001.3
20260505064708 5 295 0.0 0.0 0.00 0.00 0.00 67 1001.5
20260505064206 5 315 0.0 0.0 0.00 0.00 0.00 66 1001.3
20260505063703 5 349 0.0 0.0 0.00 0.00 0.00 66 1001.2
20260505063159 4 286 0.0 0.0 0.00 0.00 0.00 67 1001.2
20260505062655 3 266 0.0 0.0 0.00 0.00 0.00 69 1001.3
20260505062154 3 330 0.0 0.0 0.00 0.00 0.00 68 1001.1
20260505061650 3 314 0.0 0.0 0.00 0.00 0.00 69 1001.2
20260505061148 3 28 0.0 0.0 0.00 0.00 0.00 69 1001.2
20260505060645 3 274 0.0 0.0 0.00 0.00 0.00 68 1001.2
20260505060142 4 295 0.0 0.0 0.00 0.00 0.00 68 1000.9
20260505055637 3 340 0.0 0.0 0.00 0.00 0.00 69 1001.2
20260505055134 4 340 0.0 0.0 0.00 0.00 0.00 68 1001.1
20260505054632 3 325 0.0 0.0 0.00 0.00 0.00 69 1001.2
20260505054130 3 325 0.0 0.0 0.00 0.00 0.00 69 1001.1
20260505053627 4 325 0.0 0.0 0.00 0.00 0.00 68 1001.0
20260505053123 4 331 0.0 0.0 0.00 0.00 0.00 68 1001.0
20260505052620 3 305 0.0 0.0 0.00 0.00 0.00 70 1001.0
20260505052118 3 305 0.0 0.0 0.00 0.00 0.00 69 1001.0
20260505051614 3 269 0.0 0.0 0.00 0.00 0.00 69 1000.7
20260505051112 3 276 0.0 0.0 0.00 0.00 0.00 69 1000.7
20260505050610 4 276 0.0 0.0 0.00 0.00 0.00 68 1000.6
20260505050108 3 36 0.0 0.0 0.00 0.00 0.00 67 1000.4
20260505041538 6 271 0.0 0.0 0.00 0.00 0.00 61 999.7
20260505041035 6 20 0.0 0.0 0.00 0.00 0.00 60 999.5
20260505040532 6 356 0.0 0.0 0.00 0.00 0.00 59 999.6
20260505040030 6 355 0.0 0.0 0.00 0.00 0.00 60 999.4
20260505035525 6 324 0.0 0.0 0.00 0.00 0.00 59 999.4
20260505035022 6 251 0.0 0.0 0.00 0.00 0.00 59 999.3
20260505034519 6 316 0.0 0.0 0.00 0.00 0.00 57 999.4
20260505034016 6 298 0.0 0.0 0.00 0.00 0.00 57 999.1
20260505033513 7 10 0.0 0.0 0.00 0.00 0.00 56 999.2
20260505033011 6 285 0.0 0.0 0.00 0.00 0.00 57 999.3
20260505032508 7 293 0.0 0.0 0.00 0.00 0.00 57 999.2
20260505032004 7 257 0.0 0.0 0.00 0.00 0.00 58 999.3
20260505031501 7 328 0.0 0.0 0.00 0.00 0.00 56 999.2
20260505030958 7 280 0.0 0.0 0.00 0.00 0.00 55 999.0
20260505030455 7 347 0.0 0.0 0.00 0.00 0.00 55 999.1
20260505025949 7 304 0.0 0.0 0.00 0.00 0.00 55 998.8
20260505025447 8 335 0.0 0.0 0.00 0.00 0.00 54 998.9
20260505024946 7 333 0.0 0.0 0.00 0.00 0.00 55 998.8
20260505024443 7 323 0.0 0.0 0.00 0.00 0.00 55 998.9
20260505023940 8 348 0.0 0.0 0.00 0.00 0.00 56 998.8
20260505023437 8 342 0.0 0.0 0.00 0.00 0.00 55 998.6
20260505022934 8 6 0.0 0.0 0.00 0.00 0.00 55 998.6
20260505022432 8 318 0.0 0.0 0.00 0.00 0.00 55 998.4
20260505021929 8 330 0.0 0.0 0.00 0.00 0.00 54 998.3
20260505021425 8 352 0.0 0.0 0.00 0.00 0.00 54 998.1
20260505020921 8 326 0.0 0.0 0.00 0.00 0.00 55 998.3
20260505020416 9 307 0.0 0.0 0.00 0.00 0.00 54 997.8
20260505015913 8 321 0.0 0.0 0.00 0.00 0.00 55 997.8
20260505015411 9 323 0.0 0.0 0.00 0.00 0.00 54 997.6
20260505014908 9 315 0.0 0.0 0.00 0.00 0.00 54 997.3
20260505014405 10 318 0.0 0.0 0.00 0.00 0.00 53 997.5
20260505013901 10 284 0.0 0.0 0.00 0.00 0.00 52 997.5
20260505013358 10 308 0.0 0.0 0.00 0.00 0.00 52 997.0
20260505012857 10 290 0.0 0.0 0.00 0.00 0.00 51 997.0
20260505012354 10 334 0.0 3.2 0.00 0.00 0.00 53 996.9
20260505011850 11 24 0.0 1.6 0.00 0.00 0.00 52 996.7
20260505011347 11 329 0.0 0.0 0.00 0.00 0.00 53 996.6
20260505010843 11 48 0.0 0.0 0.00 0.00 0.00 52 996.5
20260505010339 11 310 0.0 0.0 0.00 0.00 0.00 51 996.4
20260505005836 11 0 0.0 0.0 0.00 0.00 0.00 51 996.3
20260505005332 12 294 0.0 0.0 0.00 0.00 0.00 50 996.0
20260505004831 12 351 0.0 0.0 0.00 0.00 0.00 50 996.1
20260505004326 12 359 0.0 0.0 0.00 0.00 0.00 51 996.0
20260505003824 12 313 0.0 0.0 0.00 0.00 0.00 50 995.7
20260505003321 13 288 0.0 0.0 0.00 0.00 0.00 49 995.8
20260505002816 13 310 0.0 0.0 0.00 0.00 0.00 50 995.6
20260505002314 13 279 0.0 0.0 0.00 0.00 0.00 50 995.5
20260505001812 13 343 0.0 0.0 0.00 0.00 0.00 51 995.3
20260505001309 14 316 0.0 0.0 0.00 0.00 0.00 50 995.2
20260505000806 13 2 0.0 0.0 0.00 0.00 0.00 51 995.1
20260505000304 14 335 0.0 0.0 0.00 0.00 0.00 50 994.9
20260504235800 14 254 0.0 0.0 0.00 0.00 0.00 50 994.9
20260504235256 15 333 0.0 0.0 0.00 0.00 0.00 49 994.9
20260504234754 15 344 0.0 0.0 0.00 0.00 0.00 49 994.8
20260504234251 15 358 0.0 0.0 0.00 0.00 0.00 48 994.8
20260504233747 15 348 0.0 0.0 0.00 0.00 0.00 48 994.8
20260504233243 15 89 0.0 0.0 0.00 0.00 0.00 48 994.3
20260504232740 16 319 0.0 0.0 0.00 0.00 0.00 48 994.3
20260504232237 16 344 0.0 0.0 0.00 0.00 0.00 48 994.3
20260504231734 16 20 0.0 0.0 0.00 0.00 0.00 47 994.0
20260504231231 16 338 1.6 8.0 0.00 0.00 0.00 46 994.2
20260504230726 16 344 0.0 0.0 0.00 0.00 0.00 46 994.0
20260504230225 17 340 3.2 8.0 0.00 0.00 0.00 44 993.8
20260504225724 17 6 0.0 0.0 0.00 0.00 0.00 43 993.6
20260504225220 17 280 0.0 0.0 0.00 0.00 0.00 42 993.7
20260504224717 17 341 0.0 0.0 0.00 0.00 0.00 42 993.7
20260504224214 18 336 1.6 8.0 0.00 0.00 0.00 42 993.6
20260504223710 18 347 0.0 0.0 0.00 0.00 0.00 41 993.4
20260504223206 18 308 0.0 0.0 0.00 0.00 0.00 39 993.3
20260504222703 18 241 0.0 0.0 0.00 0.00 0.00 38 993.3
20260504222200 18 223 0.0 1.6 0.00 0.00 0.00 39 993.1
20260504221657 18 137 0.0 0.0 0.00 0.00 0.00 40 993.2
20260504221155 18 19 0.0 0.0 0.00 0.00 0.00 39 992.9
20260504220650 18 294 0.0 0.0 0.00 0.00 0.00 40 992.8
20260504220149 18 292 0.0 0.0 0.00 0.00 0.00 40 993.0
20260504215644 18 224 1.6 9.7 0.00 0.00 0.00 39 993.1
20260504215142 19 219 0.0 0.0 0.00 0.00 0.00 41 992.7
20260504214637 18 333 0.0 0.0 0.00 0.00 0.00 39 992.8
20260504214134 18 299 0.0 0.0 0.00 0.00 0.00 39 992.7
20260504213631 18 258 0.0 0.0 0.00 0.00 0.00 40 992.6
20260504213128 18 229 0.0 0.0 0.00 0.00 0.00 38 992.9
20260504212624 18 231 0.0 0.0 0.00 0.00 0.00 38 992.5
20260504212121 18 260 0.0 0.0 0.00 0.00 0.00 39 992.7
20260504211619 18 232 0.0 0.0 0.00 0.00 0.00 37 992.7
20260504211114 18 254 0.0 0.0 0.00 0.00 0.00 39 992.8
20260504210613 18 354 0.0 0.0 0.00 0.00 0.00 40 992.5
20260504210109 18 354 0.0 0.0 0.00 0.00 0.00 41 992.4
20260504205606 18 303 0.0 0.0 0.00 0.00 0.00 43 992.4
20260504205104 18 331 0.0 0.0 0.00 0.00 0.00 43 992.5
20260504204602 18 206 0.0 0.0 0.00 0.00 0.00 43 992.3
20260504204101 18 332 0.0 0.0 0.00 0.00 0.00 45 992.4
20260504203559 18 17 0.0 1.6 0.00 0.00 0.00 47 992.3
20260504203056 18 2 0.0 0.0 0.00 0.00 0.00 47 992.6
20260504202551 18 25 1.6 3.2 0.00 0.00 0.00 46 992.0
20260504202048 19 286 0.0 0.0 0.00 0.00 0.00 46 992.4
20260504201545 19 309 0.0 0.0 0.00 0.00 0.00 46 992.2
20260504201043 20 202 1.6 4.8 0.00 0.00 0.00 45 992.2
20260504200539 20 219 0.0 0.0 0.00 0.00 0.00 44 992.0
20260504200036 20 221 0.0 0.0 0.00 0.00 0.00 45 992.1
20260504195532 19 39 0.0 0.0 0.00 0.00 0.00 48 992.1
20260504195029 18 342 0.0 1.6 0.00 0.00 0.00 47 992.2
20260504194525 18 17 0.0 0.0 0.00 0.00 0.00 48 992.3
20260504194021 19 326 0.0 0.0 0.00 0.00 0.00 46 992.1
20260504193518 18 313 0.0 0.0 0.00 0.00 0.00 46 992.2
20260504193017 19 356 0.0 0.0 0.00 0.00 0.00 46 992.3
20260504192514 19 343 0.0 0.0 0.00 0.00 0.00 47 991.9
20260504192012 18 350 3.2 9.7 0.00 0.00 0.00 48 992.0
20260504191510 19 343 0.0 0.0 0.00 0.00 0.00 46 992.2
20260504191006 20 223 0.0 0.0 0.00 0.00 0.00 46 991.9
20260504190502 20 335 0.0 0.0 0.00 0.00 0.00 45 992.0
20260504185958 20 338 0.0 0.0 0.00 0.00 0.00 45 991.9
20260504185455 20 208 0.0 0.0 0.00 0.00 0.00 45 991.7
20260504184952 21 259 0.0 0.0 0.00 0.00 0.00 44 991.7
20260504184447 21 229 0.0 0.0 0.00 0.00 0.00 46 991.4
20260504183943 21 314 0.0 0.0 0.00 0.00 0.00 45 991.4
20260504183440 20 229 0.0 0.0 0.00 0.00 0.00 43 991.7
20260504182938 20 199 0.0 0.0 0.00 0.00 0.00 43 991.5
20260504182435 20 226 0.0 0.0 0.00 0.00 0.00 44 991.4
20260504181932 20 308 0.0 0.0 0.00 0.00 0.00 45 991.6
20260504181429 20 313 0.0 0.0 0.00 0.00 0.00 46 991.1
20260504180928 20 179 1.6 3.2 0.00 0.00 0.00 43 991.6
20260504180426 19 27 0.0 0.0 0.00 0.00 0.00 47 991.7
20260504175924 20 341 4.8 11.3 0.00 0.00 0.00 46 991.5
20260504175421 20 86 0.0 0.0 0.00 0.00 0.00 47 991.5
20260504174918 20 268 0.0 0.0 0.00 0.00 0.00 45 991.6
20260504174416 18 291 0.0 0.0 0.00 0.00 0.00 47 991.6
20260504173913 18 323 0.0 0.0 0.00 0.00 0.00 48 991.7
20260504173409 17 336 0.0 0.0 0.00 0.00 0.00 51 991.8
20260504172907 18 258 0.0 0.0 0.00 0.00 0.00 50 991.9
20260504172403 17 339 0.0 0.0 0.00 0.00 0.00 52 992.0
20260504171859 16 181 0.0 0.0 0.00 0.00 0.00 53 992.1
20260504171356 17 22 0.0 0.0 0.00 0.00 0.00 53 992.0
20260504170854 17 325 0.0 0.0 0.00 0.00 0.00 51 991.9
20260504170350 17 353 0.0 0.0 0.00 0.00 0.00 52 992.1
20260504160309 18 243 0.0 0.0 0.00 0.00 0.00 49 991.1
20260504150734 17 274 0.0 0.0 0.00 0.00 0.00 46 991.0
20260504150230 16 151 6.4 8.0 0.00 0.00 0.00 48 991.0
20260504141200 15 208 1.6 9.7 0.00 0.00 0.00 53 991.7
20260504140656 15 245 0.0 0.0 0.00 0.00 0.00 53 992.0
20260504140152 15 237 0.0 0.0 0.00 0.00 0.00 53 992.3